Lid_Strength_Index
1 1 1 1 1 2 3 4 4 3 2 2 2 2 2 2 2 1 4 2 1 -2 0 3 3 4 5 5 4 3 7 8 7 7 6 4 5 3 4 5 5 4 4 3 2
1 1 1 1 1 1 3 4 4 3 2 2 2 2 3 2 2 2 -0 -3 -3 -3 4 4 5 5 6 5 4 5 7 7 6 5 5 5 5 4 5 6 6 5 3 2 2
1 1 1 1 1 1 3 4 4 4 3 2 2 3 3 2 3 3 -2 -4 -3 -1 3 3 2 4 6 4 4 4 6 5 5 4 4 5 5 4 6 7 5 6 4 3 3
1 1 1 2 2 2 3 4 4 4 4 2 3 3 3 2 7 3 -2 -4 -3 2 3 3 3 5 5 5 4 6 5 5 4 4 4 5 5 6 6 6 4 3 3 3 4
1 1 1 2 2 2 2 3 4 4 4 3 3 3 2 4 3 1 -2 -2 2 3 4 4 4 4 5 5 4 5 5 4 4 4 4 4 6 6 6 4 3 3 3 3 3
1 2 2 2 2 2 2 3 4 5 4 2 2 3 3 6 2 2 2 1 3 3 4 3 3 3 4 5 5 4 5 5 4 4 4 6 6 6 6 4 4 4 4 3 3
1 1 1 1 1 2 2 3 4 5 4 1 2 2 3 4 2 3 2 3 2 2 3 2 2 4 3 5 4 4 6 5 5 5 6 6 9 10 5 4 5 4 4 3 3
1 1 1 1 1 2 2 3 5 4 3 1 1 2 5 1 1 3 2 3 2 2 2 2 2 3 4 3 5 7 7 8 6 6 6 7 12 7 5 5 5 5 4 4 3
1 2 1 1 1 2 3 4 5 3 2 1 1 2 5 2 3 3 2 3 3 2 2 2 3 4 4 7 8 7 9 8 7 5 7 8 12 7 6 5 5 5 4 4 4
1 2 2 2 2 3 4 4 2 4 3 -0 1 4 3 5 3 2 2 2 3 3 4 4 5 6 6 7 10 9 8 8 8 6 8 10 11 8 7 5 5 5 4 4 4
1 1 2 2 2 3 3 2 4 5 4 4 4 4 4 3 2 3 2 3 3 4 7 5 7 8 7 6 6 7 7 8 7 5 6 8 11 7 6 6 6 5 5 5 4
1 1 2 2 2 3 3 4 6 6 7 3 3 4 3 3 5 4 2 5 5 7 5 6 8 6 5 6 6 7 8 8 7 6 6 10 11 10 6 6 6 5 5 5 4
1 2 2 2 2 3 3 5 4 3 6 4 4 5 4 3 5 5 4 4 5 6 6 7 6 5 6 6 7 7 8 8 8 6 6 9 12 10 8 8 5 5 4 4 4
1 2 2 3 3 3 4 4 4 1 7 6 6 5 4 4 5 3 3 3 5 7 6 6 5 6 6 7 7 8 6 7 7 8 10 8 16 12 10 10 9 7 5 5 4
1 2 2 2 2 4 4 2 1 1 14 5 5 2 3 6 4 4 2 3 6 6 5 7 7 6 7 7 6 7 6 6 7 8 8 10 12 14 10 11 9 8 6 6 5
1 2 2 1 2 3 3 2 1 9 14 7 5 5 6 7 5 4 4 3 4 5 6 6 4 5 6 6 5 5 6 7 7 8 11 11 10 14 12 10 8 7 5 5 5
2 2 3 1 4 2 2 3 10 12 6 8 7 5 6 7 6 6 6 7 7 8 8 7 6 5 5 6 6 6 7 11 12 12 14 9 12 13 8 8 8 7 6 5 4
2 3 1 -0 0 2 3 6 13 8 8 6 6 6 9 7 6 6 7 7 6 7 8 9 10 7 5 6 7 7 7 11 14 13 11 9 15 13 6 6 5 5 5 4 4
3 0 0 -0 -0 0 5 10 10 8 6 7 6 8 8 6 7 7 7 7 6 6 8 9 9 5 6 5 6 7 9 7 9 9 11 12 10 8 7 6 6 6 5 4 4
2 2 2 -1 -1 1 7 9 7 6 5 5 8 7 9 8 8 8 7 6 6 5 5 7 10 6 6 5 5 6 6 9 9 13 13 14 13 13 9 8 6 6 5 4 3
2 4 1 -1 -0 4 8 9 6 5 5 6 7 7 9 9 7 8 7 6 5 5 6 6 7 8 6 7 8 7 8 8 8 9 13 13 14 8 8 7 7 6 5 4 4
2 6 0 -0 5 5 7 6 9 6 4 5 5 6 7 7 8 8 7 6 4 5 7 6 7 9 9 6 5 6 7 7 11 12 10 10 14 6 6 6 5 5 4 4 3
4 4 0 1 8 8 5 6 7 7 5 5 6 5 5 6 8 7 7 5 4 5 7 6 7 10 9 7 7 7 7 7 7 8 11 13 14 6 6 6 5 5 4 4 3
4 6 3 3 3 6 7 7 8 6 5 5 5 5 6 6 6 7 7 5 4 5 5 5 7 9 12 11 8 9 8 7 8 11 11 12 11 8 7 6 5 5 4 4 4
4 5 4 6 5 6 6 6 8 7 5 4 6 6 6 7 7 7 6 6 5 5 5 5 8 7 7 7 7 8 8 8 9 8 11 10 10 8 7 6 5 4 4 4 4
5 5 4 5 5 5 7 7 7 6 6 6 7 6 5 7 6 7 6 6 6 5 6 5 8 7 8 7 7 8 8 8 8 8 8 9 9 6 5 4 5 5 5 5 5
2 2 4 6 5 7 7 7 6 5 5 5 5 6 6 5 4 4 4 4 5 6 6 6 8 8 10 8 8 11 9 8 8 7 8 10 8 5 6 5 6 5 5 5 4